Flag for France Weather past 2 weeks in Amsterdam Island, French Southern Territories, France

Now
66 °F

Mild.


Feels Like: 66 °F
Forecast: 62 / 64 °F
Wind: 10 mph from Northwest

Location: Martin De Vivies Ile Amsterdam

Current Time: Dec 20, 2014 at 3:02:33 PM

Latest Report: Dec 20, 2014 at 2:00 PM


Visibility: N/A

Pressure: 30.14 "Hg

Humidity: 92%

Dew point: 64 °F

Location of Amsterdam IslandLocation

Historic Weather in Amsterdam Island — Graph

°F

Amsterdam Island temperature yesterday

Maximum temperature yesterday: 68 °F (at 12:00 PM)
Minimum temperature yesterday: 58 °F (at 12:00 AM)
Average temperature yesterday: 63 °F

Past Weeks' High & Low Weather Summary

 TemperatureHumidityPressure
High68 °F (Dec 19, 12:00 PM)97% (Dec 16, 4:00 AM)30.51 "Hg (Dec 16, 4:00 AM)
Low49 °F (Dec 12, 8:00 PM)49% (Dec 12, 11:00 AM)29.84 "Hg (Dec 17, 5:00 PM)
Average59 °F76%30.26 "Hg
* Reported Dec 5 1:00 PM — Dec 20 1:00 PM, Amsterdam Island, Weather by CustomWeather, © 2014

Note: Actual official high and low records may vary slightly from our data, if they occured in-between our weather recording intervals... More about our weather records

Advertising

Amsterdam Island weather history for previous 24 hours

 ConditionsComfort  
Time TempWeatherWind HumidityBarometerVisibility
1:00 PM
Dec 20
66 °FMild.9 mph93%30.14 "HgN/A
12:00 PM66 °FMild.9 mph94%30.15 "HgN/A
11:00 AM65 °FMild.9 mph95%30.12 "HgN/A
10:00 AM64 °FMild.13 mph94%30.14 "HgN/A
9:00 AM64 °FMild.13 mph92%30.14 "HgN/A
8:00 AM65 °FMild.20 mph91%30.11 "HgN/A
7:00 AM65 °FMild.14 mph97%30.11 "HgN/A
6:00 AM64 °FMild.12 mph96%30.10 "HgN/A
5:00 AM64 °FMild.8 mph95%30.09 "HgN/A
4:00 AM64 °FMild.8 mph95%30.08 "HgN/A
3:00 AM64 °FMild.9 mph95%30.07 "HgN/A
1:00 AM63 °FMild.No wind95%30.09 "HgN/A
12:00 AM63 °FMild.No wind94%30.10 "HgN/A
11:00 PM
Dec 19
63 °FMild.2 mph94%30.11 "HgN/A
10:00 PM62 °FMild.1 mph94%30.12 "HgN/A
9:00 PM62 °FMild.2 mph94%30.12 "HgN/A
8:00 PM62 °FMild.2 mph93%30.12 "HgN/A
7:00 PM62 °FMild.5 mph93%30.11 "HgN/A
6:00 PM63 °FMild.8 mph90%30.11 "HgN/A
5:00 PM64 °FMild.9 mph88%30.10 "HgN/A
4:00 PM65 °FMild.5 mph87%30.10 "HgN/A
3:00 PM65 °FMild.8 mph85%30.11 "HgN/A
Weather by CustomWeather, © 2014

See weather overviewHow to use our weather pages